User: anonymous   Login
Location: Unspecified
(0.0000°N, 0.0000°E)
Time: 12:15:37
(UTC+00:00)
Language:

Aussat K1 - Orbit

View from above orbital plane
View from above orbital plane
View from above satellite
View from above satellite

Ground track
Ground track

The orbit data is extracted from the following two-line orbital elements,

1 15993U 85076B   16268.53543269 -.00000076 +00000-0 +00000-0 0  9997
2 15993 015.2761 010.0947 0005636 241.6854 126.2067 00.99768756084151
Epoch (UTC): 24 September 2016 12:51:01
Eccentricity: 0.0005636
inclination: 15.2761°
perigee height: 35904 km
apogee height: 35951 km
right ascension of ascending node: 10.0947°
argument of perigee: 241.6854°
revolutions per day: 0.99768756
mean anomaly at epoch: 126.2067°
orbit number at epoch: 8415

The dashed part of the orbit path shows where the satellite is in the earth's shadow,  

DLR